Location: Fort Worth, Tx
(32.7431°N, 97.3695°W)
Time: 20:45:14
(UTC-04:00)

A-11 Canister half - Pass Details

Date: 25 February 2024
Orbit: 1524 x 1683 km, 47.3° (Epoch: 08 October)

Event Time Altitude Azimuth Distance (km) Brightness Sun altitude
Exits shadow 04:02:55 29° 98° (E) 2,529 10.3 -50.0°
Drops below altitude 10° 04:06:59 10° 109° (ESE) 3,722 11.3 -49.2°
Sets 04:10:09 0° 113° (ESE) 4,721 11.9 -48.7°
